Content
SEND FEEDBACK

Daily
Averages
Monthly
Summary
United States of America

CHICAGO, ILLINOIS


Home > North America > United States > Illinois
Elevation: 674 feet     Latitude: 41 59N     Longitude: 087 54W

WEATHER
 
SELECT A DAY
Number of Records: 198,755;   Date Range: 7/8/95 - 11/22/14
 
SHARE

PRINT THIS DATA

[ ← Previous Day ]
WEATHER ALMANAC - MARCH 14, 2014
[ Next Day → ]
[ °C ]   °F
Weather ElementAverageHighLow
Temperature44.4 °F53.1 °F (1:52 pm)39 °F (1:52 am)
Dewpoint30.5 °F33.1 °F (12:52 pm)28.9 °F (6:52 am)
Humidity59 %73 % (1:52 am)46 % (11:52 am)
Barometer29.71 in29.85 in (10:52 pm)29.59 in (11:52 am)
Wind Speed15.4 mph20.7 mph (4:52 pm)
Wind Gust34.5 mph (5:52 pm)
Weather ElementAverage
Visibility10 mi
Wind DirectionWSW (239.6 °)

Weather ElementTotal
Precipitation---
Heating Degree Days19 (Base 65)
Averaged from 23 records on March 14, 2014
WEATHER CONDITIONS BREAKOUT
WIND DIRECTION BREAKOUT
WEATHER BY HOUR - MARCH 14, 2014
[ °C ]   °F
Local TimeTemperatureDewpointHumidityBarometerVisibilityWind DirectionWind SpeedGust SpeedPrecipitationEventsConditions
1:52 AM39.0 °F30.9 °F73 %29.81 in10.0 miSouth (190°)12.7 mphClear
2:52 AM39.9 °F30.9 °F70 %29.75 in10.0 miSSW (200°)13.8 mph23.0 mphClear
3:52 AM39.0 °F30.9 °F73 %29.72 in10.0 miSouth (190°)12.7 mphClear
4:52 AM39.9 °F30.9 °F70 %29.71 in10.0 miSSW (200°)12.7 mphClear
5:52 AM42.1 °F30.0 °F62 %29.69 in10.0 miSSW (200°)16.1 mph26.5 mphClear
6:52 AM42.1 °F28.9 °F60 %29.66 in10.0 miSSW (200°)18.4 mph26.5 mphClear
7:52 AM43.0 °F28.9 °F58 %29.65 in10.0 miSSW (210°)16.1 mph28.8 mphClear
8:52 AM44.1 °F28.9 °F55 %29.63 in10.0 miSSW (210°)12.7 mph20.7 mphClear
9:52 AM46.9 °F28.9 °F50 %29.60 in10.0 miSSW (210°)18.4 mph26.5 mphClear
10:52 AM48.0 °F28.9 °F48 %29.60 in10.0 miSW (230°)18.4 mph28.8 mphClear
11:52 AM50.0 °F30.0 °F46 %29.59 in10.0 miSW (230°)17.3 mph26.5 mphClear
12:52 PM50.0 °F33.1 °F52 %29.60 in10.0 miWest (260°)17.3 mph29.9 mphClear
1:52 PM53.1 °F33.1 °F47 %29.60 in10.0 miWSW (250°)16.1 mph23.0 mphPartly Cloudy
2:52 PM53.1 °F33.1 °F47 %29.61 in10.0 miWest (270°)18.4 mph26.5 mphClear
3:52 PM52.0 °F32.0 °F47 %29.64 in10.0 miWest (270°)19.6 mph33.4 mphClear
4:52 PM48.9 °F30.0 °F48 %29.68 in10.0 miWest (280°)20.7 mph32.2 mphClear
5:52 PM45.0 °F30.9 °F58 %29.74 in10.0 miWest (280°)20.7 mph34.5 mphClear
6:52 PM43.0 °F30.0 °F60 %29.78 in10.0 miWest (280°)18.4 mph31.1 mphOvercast
7:52 PM42.1 °F30.0 °F62 %29.80 in10.0 miWest (280°)16.1 mph27.6 mphClear
8:52 PM41.0 °F30.9 °F67 %29.82 in10.0 miWest (260°)10.4 mphClear
9:52 PM39.9 °F30.0 °F68 %29.84 in10.0 miWest (260°)10.4 mphClear
10:52 PM39.9 °F30.0 °F68 %29.85 in10.0 miWest (280°)9.2 mph18.4 mphMostly Cloudy
11:52 PM39.9 °F30.0 °F68 %29.85 in10.0 miWest (270°)8.1 mphOvercast
Hourly data recorded from KPWK, located miles away from Chicago, Illinois







STORIES FROM OUR PARTNERS